GW5518 Weather Reports


time (UTC)temp
F
wind
direction
speed
knots
gust
knots
rain 1hr
in
rain 24hr
in
rain mn
in
humidity
%
barometer
mb
20260906210029 88 156 8.7 12.2 0.00 0.00 0.00 38 1016.4
20260906204528 87 156 8.7 14.8 0.00 0.00 0.00 38 1016.7
20260906203027 87 189 5.2 15.6 0.00 0.00 0.00 38 1016.9
20260906201528 88 130 7.8 13.9 0.00 0.00 0.00 37 1017.0
20260906200027 87 139 8.7 13.9 0.00 0.00 0.00 39 1017.1
20260906194529 87 140 6.1 15.6 0.00 0.00 0.00 39 1017.2
20260906193027 86 198 5.2 14.8 0.00 0.00 0.00 38 1017.4
20260906191528 87 205 8.7 13.0 0.00 0.00 0.00 40 1017.6
20260906190027 86 151 8.7 13.0 0.00 0.00 0.00 40 1017.6
20260906184535 85 203 8.7 19.1 0.00 0.00 0.00 41 1017.7
20260906183030 84 182 7.0 14.8 0.00 0.00 0.00 42 1017.9
20260906181531 85 215 8.7 14.8 0.00 0.00 0.00 41 1018.0
20260906180027 83 224 7.8 12.2 0.00 0.00 0.00 44 1018.2
20260906174531 83 198 10.4 13.9 0.00 0.00 0.00 43 1018.5
20260906173030 83 164 8.7 13.9 0.00 0.00 0.00 44 1018.6
20260906171531 82 202 7.8 13.0 0.00 0.00 0.00 44 1019.1
20260906170058 81 194 8.7 13.9 0.00 0.00 0.00 45 1019.2
20260906164533 80 202 8.7 14.8 0.00 0.00 0.00 46 1019.5
20260906163031 79 226 7.0 13.0 0.00 0.00 0.00 48 1019.5
20260906161533 78 188 9.6 13.9 0.00 0.00 0.00 48 1019.4
20260906160030 77 208 10.4 14.8 0.00 0.00 0.00 50 1019.4
20260906154535 75 206 8.7 13.9 0.00 0.00 0.00 53 1019.3
20260906153039 75 180 8.7 14.8 0.00 0.00 0.00 54 1019.3
20260906151533 74 171 7.8 14.8 0.00 0.00 0.00 55 1019.3
20260906150032 72 207 8.7 15.6 0.00 0.00 0.00 59 1019.5
20260906144537 70 174 10.4 18.2 0.00 0.00 0.00 61 1019.5
20260906143036 69 199 11.3 20.0 0.00 0.00 0.00 63 1019.6
20260906141537 67 188 12.2 15.6 0.00 0.00 0.00 65 1019.5
20260906140037 67 191 9.6 16.5 0.00 0.00 0.00 66 1019.4
20260906134530 66 202 10.4 15.6 0.00 0.00 0.00 67 1019.4
20260906133030 65 192 10.4 16.5 0.00 0.00 0.00 67 1019.6
20260906131531 65 188 10.4 17.4 0.00 0.00 0.00 68 1019.6
20260906130033 64 188 7.8 12.2 0.00 0.00 0.00 70 1019.6
20260906124541 63 188 10.4 13.9 0.00 0.00 0.00 72 1019.5
20260906123104 62 211 10.4 14.8 0.00 0.00 0.00 72 1019.5
20260906121530 63 198 7.8 13.0 0.00 0.00 0.00 70 1019.3
20260906120031 64 196 9.6 15.6 0.00 0.00 0.00 68 1019.3
20260906114534 64 180 10.4 16.5 0.00 0.00 0.00 68 1019.1
20260906113037 64 175 9.6 15.6 0.00 0.00 0.00 69 1019.1
20260906111532 63 190 12.2 16.5 0.00 0.00 0.00 71 1019.2
20260906110035 63 189 11.3 15.6 0.00 0.00 0.00 71 1019.2
20260906104535 63 189 12.2 16.5 0.00 0.00 0.00 73 1019.1
20260906103034 63 200 12.2 18.2 0.00 0.00 0.00 73 1019.2
20260906101531 63 208 9.6 13.0 0.00 0.00 0.00 72 1019.1
20260906100032 63 205 9.6 13.0 0.00 0.00 0.00 72 1018.9
20260906094535 63 193 5.2 8.7 0.00 0.00 0.00 73 1019.1
20260906093030 62 194 5.2 7.0 0.00 0.00 0.00 75 1018.9
20260906091538 63 189 5.2 8.7 0.00 0.00 0.00 69 1019.1
20260906090033 65 179 5.2 10.4 0.00 0.00 0.00 66 1019.0
20260906084535 66 179 7.8 11.3 0.00 0.00 0.00 64 1018.7
20260906083036 66 161 8.7 14.8 0.00 0.00 0.00 66 1018.4
20260906081536 66 161 11.3 16.5 0.00 0.00 0.00 68 1018.5
20260906080033 66 184 12.2 16.5 0.00 0.00 0.00 69 1018.6
20260906074538 67 183 12.2 18.2 0.00 0.00 0.00 1018.7
20260906073036 67 188 13.9 21.7 0.00 0.00 0.00 70 1018.7
20260906071532 67 168 11.3 17.4 0.00 0.00 0.00 69 1018.7
20260906070032 67 155 9.6 14.8 0.00 0.00 0.00 69 1018.8
20260906064536 68 172 11.3 18.2 0.00 0.00 0.00 69 1018.8
20260906063013 68 140 12.2 17.4 0.00 0.00 0.00 72 1018.9
20260906061510 68 165 11.3 15.6 0.00 0.00 0.00 72 1019.2
20260906060012 68 183 10.4 14.8 0.00 0.00 0.00 71 1019.2
20260906054510 69 163 10.4 17.4 0.00 0.00 0.00 69 1019.2
20260906053022 69 159 11.3 16.5 0.00 0.00 0.00 68 1018.8
20260906051509 69 156 9.6 13.9 0.00 0.00 0.00 67 1018.5
20260906050012 69 146 7.8 13.0 0.00 0.00 0.00 66 1018.5
20260906044510 69 135 9.6 13.9 0.00 0.00 0.00 66 1018.8
20260906043023 69 105 9.6 13.9 0.00 0.00 0.00 66 1018.9
20260906041513 69 132 7.8 12.2 0.00 0.00 0.00 67 1018.8
20260906040013 69 138 10.4 13.9 0.00 0.00 0.00 67 1018.8
20260906034512 69 128 10.4 14.8 0.00 0.00 0.00 68 1018.9
20260906033019 69 128 9.6 16.5 0.00 0.00 0.00 69 1018.8
20260906031515 69 123 10.4 16.5 0.00 0.00 0.00 70 1018.7
20260906030019 70 124 8.7 16.5 0.00 0.00 0.00 73 1018.5
20260906024514 71 144 13.9 21.7 0.00 0.00 0.00 71 1019.1
20260906023012 74 150 14.8 23.5 0.00 0.00 0.00 61 1018.9
20260906021514 74 159 8.7 15.6 0.00 0.00 0.00 57 1018.5
20260906020014 74 161 9.6 13.9 0.00 0.00 0.00 56 1018.2
20260906014514 72 166 6.1 10.4 0.00 0.00 0.00 61 1017.9
20260906013023 71 193 4.3 6.1 0.00 0.00 0.00 65 1017.9
20260906011515 73 198 4.3 10.4 0.00 0.00 0.00 60 1017.7
20260906010017 75 173 6.1 12.2 0.00 0.00 0.00 57 1017.8
20260906004520 76 188 6.1 13.0 0.00 0.00 0.00 53 1017.9
20260906003017 77 135 13.0 17.4 0.00 0.00 0.00 54 1018.0
20260906001518 78 119 11.3 18.2 0.00 0.00 0.00 54 1017.8
20260906000034 80 111 14.8 20.9 0.00 0.00 0.00 54 1017.5
20260905234514 83 115 10.4 19.1 0.00 0.00 0.00 51 1017.6
20260905233017 83 123 9.6 14.8 0.00 0.00 0.00 41 1017.9
20260905231518 82 103 9.6 16.5 0.00 0.00 0.00 48 1017.8
20260905230018 81 105 8.7 14.8 0.00 0.00 0.00 49 1017.7
20260905224517 79 98 9.6 16.5 0.00 0.00 0.00 53 1017.5
20260905223035 81 69 7.0 14.8 0.00 0.00 0.00 49 1017.7
20260905221534 88 51 8.7 14.8 0.00 0.00 0.00 25 1017.5
20260905220036 90 44 8.7 13.9 0.00 0.00 0.00 23 1017.6
20260905214536 91 9 5.2 10.4 0.00 0.00 0.00 22 1017.4
20260905213034 89 9 3.5 11.3 0.00 0.00 0.00 23 1017.1
20260905211546 90 34 5.2 11.3 0.00 0.00 0.00 22 1016.8